KUIPER-00163

Last updated on Mon Oct 20 2025 00:02:06 GMT+0000 (Coordinated Universal Time)

1 65777U 25217R 25292.27095749 .00030628 00000+0 88887-3 0 9992 2 65777 51.8626 327.9264 0007515 188.8339 171.2515 15.35223862 3667
UTC large
Height (km)
Speed (km/s)
/
Latitude / Longitude
Inclination (degrees)
Orbital Period (minutes)
Azimuth
Elevation
Range (km)
Doppler Factor

Next 0 passes for location: London (51.5072 / 0.1276)

Sorry there are no passes over London.